When you browse on this site, cookies collect data to enhance your experience and personalize the content and advertising you see.
Visit our Privacy Policy to learn more. By continuing to use the site, you agree to this use of cookies and data.
  • en France
  • Liste des pays
  • À 7 jours
  • Température de l'eau
  • Carte météo
  • Widgets météo
  • user-avatar
    Se connecter

    Météo par heure à Gloster

    Ce jour, 23 Août, Vendredi

    Heure Température Précipitation Vent Pression Humidité
    00:00 +15°C° 0 mm 2 m/s 762 mmHg 96%
    01:00 +15°C° 0 mm 2 m/s 762 mmHg 96%
    02:00 +15°C° 0 mm 2 m/s 762 mmHg 97%
    03:00 +15°C° 0 mm 2 m/s 762 mmHg 97%
    04:00 +15°C° 0 mm 2 m/s 762 mmHg 97%
    05:00 +15°C° 0 mm 2 m/s 762 mmHg 97%
    06:00 +15°C° 0 mm 2 m/s 762 mmHg 97%
    07:00 +16°C° 0 mm 2 m/s 762 mmHg 91%
    08:00 +18°C° 0 mm 2 m/s 762 mmHg 85%
    09:00 +20°C° 0 mm 2 m/s 762 mmHg 79%
    10:00 +21°C° 0 mm 2 m/s 762 mmHg 74%
    11:00 +23°C° 0 mm 2 m/s 762 mmHg 70%
    12:00 +24°C° 0 mm 2 m/s 761 mmHg 65%
    13:00 +25°C° 0 mm 2 m/s 761 mmHg 63%
    14:00 +25°C° 0 mm 2 m/s 761 mmHg 61%
    15:00 +26°C° 0 mm 2 m/s 761 mmHg 58%
    16:00 +25°C° 0 mm 2 m/s 760 mmHg 62%
    17:00 +24°C° 0 mm 2 m/s 760 mmHg 65%
    18:00 +23°C° 0 mm 2 m/s 759 mmHg 69%
    19:00 +20°C° 0 mm 2 m/s 760 mmHg 71%
    20:00 +18°C° 0 mm 2 m/s 760 mmHg 72%
    21:00 +16°C° 0 mm 1 m/s 760 mmHg 74%
    22:00 +16°C° 0 mm 1 m/s 759 mmHg 75%
    23:00 +15°C° 0 mm 1 m/s 759 mmHg 77%

    Demain, 24 Août, Samedi

    Heure Température Précipitation Vent Pression Humidité
    00:00 +15°C° 0 mm 1 m/s 759 mmHg 78%
    01:00 +14°C° 0 mm 1 m/s 759 mmHg 78%
    02:00 +14°C° 0 mm 1 m/s 758 mmHg 79%
    03:00 +14°C° 0 mm 1 m/s 758 mmHg 79%
    04:00 +14°C° 0 mm 1 m/s 758 mmHg 77%
    05:00 +14°C° 0 mm 1 m/s 758 mmHg 76%
    06:00 +14°C° 0 mm 1 m/s 758 mmHg 75%
    07:00 +16°C° 0 mm 1 m/s 758 mmHg 69%
    08:00 +18°C° 0 mm 2 m/s 758 mmHg 64%
    09:00 +20°C° 0 mm 2 m/s 758 mmHg 59%
    10:00 +22°C° 0 mm 3 m/s 757 mmHg 57%
    11:00 +25°C° 0 mm 3 m/s 757 mmHg 54%
    12:00 +26°C° 0 mm 4 m/s 757 mmHg 52%
    13:00 +27°C° 0 mm 4 m/s 756 mmHg 52%
    14:00 +27°C° 0 mm 4 m/s 756 mmHg 51%
    15:00 +27°C° 0 mm 5 m/s 756 mmHg 51%
    16:00 +26°C° 0 mm 4 m/s 756 mmHg 56%
    17:00 +25°C° 0 mm 3 m/s 755 mmHg 61%
    18:00 +24°C° 0 mm 2 m/s 755 mmHg 66%
    19:00 +23°C° 0 mm 2 m/s 755 mmHg 68%
    20:00 +20°C° 0 mm 2 m/s 755 mmHg 71%
    21:00 +19°C° 0 mm 2 m/s 756 mmHg 73%
    22:00 +18°C° 0 mm 2 m/s 756 mmHg 75%
    23:00 +19°C° 0 mm 1 m/s 755 mmHg 76%

    Après-demain, 25 Août, Dimanche

    Heure Température Précipitation Vent Pression Humidité
    00:00 +18°C° 0 mm 1 m/s 755 mmHg 78%
    01:00 +18°C° 0 mm 1 m/s 755 mmHg 78%
    02:00 +18°C° 0 mm 1 m/s 755 mmHg 79%
    03:00 +18°C° 0 mm 1 m/s 755 mmHg 79%
    04:00 +18°C° 0 mm 1 m/s 754 mmHg 79%
    05:00 +18°C° 0 mm 1 m/s 754 mmHg 80%
    06:00 +18°C° 0 mm 1 m/s 754 mmHg 80%
    07:00 +19°C° 0 mm 1 m/s 755 mmHg 75%
    08:00 +21°C° 0 mm 1 m/s 755 mmHg 71%
    09:00 +23°C° 0 mm 1 m/s 755 mmHg 66%
    10:00 +24°C° 0 mm 2 m/s 755 mmHg 62%
    11:00 +26°C° 0 mm 2 m/s 755 mmHg 57%
    12:00 +28°C° 0 mm 2 m/s 755 mmHg 53%
    13:00 +28°C° 0 mm 3 m/s 755 mmHg 51%
    14:00 +29°C° 0 mm 4 m/s 755 mmHg 50%
    15:00 +29°C° 0 mm 4 m/s 755 mmHg 49%
    16:00 +27°C° 0 mm 4 m/s 755 mmHg 56%
    17:00 +26°C° 0 mm 3 m/s 755 mmHg 64%
    18:00 +24°C° 0 mm 3 m/s 755 mmHg 72%
    19:00 +23°C° 0 mm 2 m/s 755 mmHg 78%
    20:00 +20°C° 0 mm 2 m/s 756 mmHg 84%
    21:00 +19°C° 0 mm 1 m/s 756 mmHg 90%
    22:00 +18°C° 0 mm 1 m/s 756 mmHg 91%
    23:00 +18°C° 0 mm 1 m/s 756 mmHg 92%

    26 Août, Lundi

    Heure Température Précipitation Vent Pression Humidité
    00:00 +16°C° 0 mm 1 m/s 756 mmHg 93%
    01:00 +16°C° 0 mm 1 m/s 756 mmHg 93%
    02:00 +16°C° 0 mm 1 m/s 756 mmHg 94%
    03:00 +15°C° 0 mm 0 m/s 756 mmHg 94%
    04:00 +16°C° 0 mm 1 m/s 756 mmHg 94%
    05:00 +16°C° 0 mm 1 m/s 756 mmHg 94%
    06:00 +16°C° 0 mm 1 m/s 756 mmHg 94%
    07:00 +17°C° 0 mm 2 m/s 756 mmHg 89%
    08:00 +19°C° 0 mm 2 m/s 756 mmHg 83%
    09:00 +21°C° 0 mm 3 m/s 756 mmHg 77%
    10:00 +22°C° 0 mm 3 m/s 756 mmHg 72%
    11:00 +24°C° 0 mm 2 m/s 756 mmHg 67%
    12:00 +25°C° 0 mm 2 m/s 756 mmHg 61%
    13:00 +25°C° 0 mm 2 m/s 756 mmHg 61%
    14:00 +26°C° 0 mm 2 m/s 756 mmHg 60%
    15:00 +26°C° 0 mm 2 m/s 756 mmHg 60%
    16:00 +25°C° 0 mm 2 m/s 755 mmHg 65%
    17:00 +24°C° 0 mm 1 m/s 755 mmHg 69%
    18:00 +24°C° 0 mm 1 m/s 755 mmHg 74%
    19:00 +22°C° 0 mm 1 m/s 755 mmHg 77%
    20:00 +21°C° 0 mm 1 m/s 755 mmHg 81%
    21:00 +20°C° 0 mm 1 m/s 755 mmHg 84%
    22:00 +19°C° 0 mm 1 m/s 755 mmHg 87%
    23:00 +17°C° 0 mm 2 m/s 755 mmHg 90%

    27 Août, Mardi

    Heure Température Précipitation Vent Pression Humidité
    00:00 +17°C° 0 mm 2 m/s 755 mmHg 94%
    01:00 +16°C° 0 mm 1 m/s 755 mmHg 93%
    02:00 +16°C° 0 mm 1 m/s 754 mmHg 93%
    03:00 +16°C° 0 mm 1 m/s 754 mmHg 92%
    04:00 +15°C° 0 mm 0 m/s 754 mmHg 92%
    05:00 +15°C° 0 mm 0 m/s 754 mmHg 91%
    06:00 +16°C° 0 mm 0 m/s 754 mmHg 90%
    07:00 +19°C° 0 mm 1 m/s 754 mmHg 86%
    08:00 +19°C° 0 mm 2 m/s 754 mmHg 82%
    09:00 +20°C° 0 mm 2 m/s 754 mmHg 78%
    10:00 +21°C° 0 mm 3 m/s 754 mmHg 74%
    11:00 +21°C° 0 mm 3 m/s 754 mmHg 70%
    12:00 +22°C° 0 mm 3 m/s 754 mmHg 67%
    13:00 +22°C° 0 mm 4 m/s 753 mmHg 66%
    14:00 +22°C° 0 mm 4 m/s 753 mmHg 64%
    15:00 +22°C° 0 mm 5 m/s 753 mmHg 63%
    16:00 +21°C° 0 mm 5 m/s 753 mmHg 68%
    17:00 +20°C° 0 mm 5 m/s 753 mmHg 73%
    18:00 +19°C° 0 mm 5 m/s 753 mmHg 77%
    19:00 +18°C° 0 mm 4 m/s 753 mmHg 81%
    20:00 +17°C° 0 mm 4 m/s 753 mmHg 85%
    21:00 +15°C° 0 mm 4 m/s 754 mmHg 88%
    22:00 +15°C° 0 mm 4 m/s 754 mmHg 88%
    23:00 +15°C° 0 mm 4 m/s 754 mmHg 89%

    28 Août, Mercredi

    Heure Température Précipitation Vent Pression Humidité
    00:00 +15°C° 0 mm 4 m/s 754 mmHg 89%
    01:00 +15°C° 0 mm 4 m/s 754 mmHg 89%
    02:00 +15°C° 0 mm 4 m/s 754 mmHg 89%
    03:00 +16°C° 0 mm 5 m/s 754 mmHg 89%
    04:00 +15°C° 0 mm 4 m/s 754 mmHg 90%
    05:00 +15°C° 0 mm 4 m/s 754 mmHg 91%
    06:00 +14°C° 0 mm 4 m/s 755 mmHg 92%
    07:00 +15°C° 0 mm 4 m/s 755 mmHg 85%
    08:00 +17°C° 0 mm 4 m/s 755 mmHg 77%
    09:00 +18°C° 0 mm 4 m/s 756 mmHg 70%
    10:00 +18°C° 0 mm 4 m/s 756 mmHg 67%
    11:00 +19°C° 0 mm 4 m/s 756 mmHg 64%
    12:00 +19°C° 0 mm 4 m/s 756 mmHg 60%
    13:00 +19°C° 0 mm 4 m/s 756 mmHg 60%
    14:00 +19°C° 0 mm 4 m/s 756 mmHg 59%
    15:00 +19°C° 0 mm 4 m/s 756 mmHg 58%
    16:00 +18°C° 0 mm 4 m/s 756 mmHg 62%
    17:00 +18°C° 0 mm 3 m/s 757 mmHg 65%
    18:00 +17°C° 0 mm 3 m/s 757 mmHg 69%
    19:00 +16°C° 0 mm 3 m/s 757 mmHg 74%
    20:00 +14°C° 0 mm 2 m/s 757 mmHg 78%
    21:00 +13°C° 0 mm 2 m/s 757 mmHg 82%
    22:00 +12°C° 0 mm 2 m/s 757 mmHg 85%
    23:00 +12°C° 0 mm 1 m/s 757 mmHg 87%
    Voir plus